Date String (YYYY-MM-DD hh:mm:ss) UTC,Instrument flags,Ambient pressure (hPa),Sample flow (lpm),Bypass flow (lpm),Sample temperature (°C),Ambient temperature (°C),ASC tube jacket temperature (°C),LED temperature (°C),Box temperature (°C),Sample RH (%),Span deviation,Mass concentration (μg/m³),Mass concentration (μg/m³),Mass concentration (μg/m³)
DateTimeUTC,F1_M11,P_M11,Q1_M11,Q2_M11,T1_M11,T2_M11,T3_M11,T4_M11,T5_M11,U1_M11,ZSPAN_M11,X0_M11,X2_M11,X1_M11
2022-05-17 11:00:00,,0822.3,5.00,0.00,30.0,28.7,00.0,39.0,31.7,11.2,0000.0,0010.73,0004.49,0003.43
2022-05-17 11:01:00,,0822.4,4.99,0.00,30.0,28.7,00.0,39.0,31.8,11.5,0000.0,0010.64,0004.46,0003.42
2022-05-17 11:02:00,,0822.4,4.99,0.00,30.0,28.7,00.0,39.0,31.8,11.2,0000.0,0011.04,0004.53,0003.43
2022-05-17 11:03:00,,0822.3,4.99,0.00,30.0,28.7,00.0,39.0,31.7,11.4,0000.0,0011.40,0004.51,0003.42
2022-05-17 11:04:00,,0822.4,5.00,0.00,30.0,28.7,00.0,39.0,31.7,11.3,0000.0,0011.21,0004.49,0003.42
2022-05-17 11:05:00,,0822.3,5.01,0.00,30.0,28.7,00.0,39.0,31.7,11.3,0000.0,0011.24,0004.48,0003.41
2022-05-17 11:06:00,,0822.3,4.99,0.00,30.0,28.7,00.0,39.0,31.8,11.5,0000.0,0011.05,0004.48,0003.41
2022-05-17 11:07:00,,0822.3,5.00,0.00,30.0,28.7,00.0,39.0,31.7,12.1,0000.0,0010.52,0004.44,0003.40
2022-05-17 11:08:00,,0822.3,4.99,0.00,30.0,28.8,00.0,39.0,31.8,12.5,0000.0,0010.65,0004.43,0003.39
2022-05-17 11:09:00,,0822.3,5.01,0.00,30.0,28.8,00.0,39.1,31.8,12.2,0000.0,0010.65,0004.41,0003.37
2022-05-17 11:10:00,,0822.4,5.01,0.00,30.0,28.8,00.0,39.1,31.8,12.5,0000.0,0010.48,0004.38,0003.35
2022-05-17 11:11:00,,0822.4,4.98,0.00,30.0,28.8,00.0,39.1,31.8,12.6,0000.0,0010.43,0004.39,0003.34
2022-05-17 11:12:00,,0822.5,5.00,0.00,30.0,28.8,00.0,39.1,31.8,12.6,0000.0,0010.68,0004.43,0003.34
2022-05-17 11:13:00,,0822.4,5.02,0.00,30.0,28.8,00.0,39.1,31.8,12.4,0000.0,0010.51,0004.40,0003.33
2022-05-17 11:14:00,,0822.4,4.99,0.00,30.1,28.8,00.0,39.1,31.8,12.5,0000.0,0009.74,0004.37,0003.33
2022-05-17 11:15:00,,0822.5,4.99,0.00,30.1,28.8,00.0,39.1,31.8,12.4,0000.0,0009.62,0004.33,0003.33
2022-05-17 11:16:00,,0822.5,5.00,0.00,30.1,28.8,00.0,39.1,31.9,12.4,0000.0,0009.51,0004.31,0003.33
2022-05-17 11:17:00,,0822.4,4.99,0.00,30.1,28.8,00.0,39.1,31.9,12.4,0000.0,0009.45,0004.30,0003.33
2022-05-17 11:18:00,,0822.5,5.00,0.00,30.1,28.8,00.0,39.1,31.9,12.5,0000.0,0009.56,0004.33,0003.34
2022-05-17 11:19:00,,0822.5,4.99,0.00,30.1,28.8,00.0,39.1,31.8,12.5,0000.0,0009.89,0004.36,0003.35
2022-05-17 11:20:00,,0822.4,5.01,0.00,30.1,28.8,00.0,39.1,31.9,12.3,0000.0,0009.95,0004.38,0003.36
2022-05-17 11:21:00,,0822.4,5.01,0.00,30.1,28.8,00.0,39.1,31.9,12.3,0000.0,0010.19,0004.42,0003.37
2022-05-17 11:22:00,,0822.5,4.99,0.00,30.1,28.7,00.0,39.1,31.9,12.3,0000.0,0010.29,0004.41,0003.38
2022-05-17 11:23:00,,0822.5,4.99,0.00,30.1,28.7,00.0,39.1,31.9,12.3,0000.0,0010.16,0004.41,0003.38
2022-05-17 11:24:00,,0822.4,5.01,0.00,30.1,28.7,00.0,39.1,31.9,12.3,0000.0,0010.11,0004.42,0003.37
2022-05-17 11:25:00,,0822.3,5.00,0.00,30.1,28.8,00.0,39.1,31.9,12.4,0000.0,0010.27,0004.49,0003.38
2022-05-17 11:26:00,,0822.3,4.99,0.00,30.1,28.8,00.0,39.1,31.9,12.5,0000.0,0010.25,0004.51,0003.38
2022-05-17 11:27:00,,0822.3,5.00,0.00,30.1,28.8,00.0,39.1,31.9,12.6,0000.0,0010.32,0004.52,0003.38
2022-05-17 11:28:00,,0822.3,5.00,0.00,30.1,28.8,00.0,39.1,31.9,12.6,0000.0,0010.26,0004.52,0003.38
2022-05-17 11:29:00,,0822.3,5.00,0.00,30.1,28.8,00.0,39.1,31.9,12.9,0000.0,0010.25,0004.54,0003.39
2022-05-17 11:30:00,,0822.3,5.00,0.00,30.1,28.8,00.0,39.2,31.9,12.8,0000.0,0009.71,0004.56,0003.39
2022-05-17 11:31:00,,0822.3,5.01,0.00,30.1,28.7,00.0,39.2,31.9,12.7,0000.0,0010.18,0004.54,0003.39
2022-05-17 11:32:00,,0822.3,5.00,0.00,30.1,28.7,00.0,39.2,31.9,12.6,0000.0,0010.92,0004.52,0003.39
2022-05-17 11:33:00,,0822.3,5.00,0.00,30.1,28.7,00.0,39.2,31.9,12.5,0000.0,0010.90,0004.56,0003.39
2022-05-17 11:34:00,,0822.4,5.00,0.00,30.1,28.7,00.0,39.2,31.9,12.6,0000.0,0011.11,0004.56,0003.39
2022-05-17 11:35:00,,0822.3,5.00,0.00,30.1,28.7,00.0,39.2,31.9,12.5,0000.0,0011.62,0004.52,0003.39
2022-05-17 11:36:00,,0822.3,5.00,0.00,30.1,28.7,00.0,39.2,31.9,12.3,0000.0,0011.73,0004.49,0003.38
2022-05-17 11:37:00,,0822.3,5.01,0.00,30.1,28.7,00.0,39.2,31.9,11.8,0000.0,0012.54,0004.69,0003.41
2022-05-17 11:38:00,,0822.3,5.00,0.00,30.1,28.7,00.0,39.2,31.9,11.8,0000.0,0014.40,0005.04,0003.46
2022-05-17 11:39:00,,0822.3,5.00,0.00,30.1,28.7,00.0,39.2,31.9,11.8,0000.0,0016.27,0005.26,0003.49
2022-05-17 11:40:00,,0822.4,5.00,0.00,30.1,28.7,00.0,39.2,31.9,11.7,0000.0,0016.79,0005.34,0003.50
2022-05-17 11:41:00,,0822.3,5.00,0.00,30.1,28.7,00.0,39.2,31.9,11.7,0000.0,0017.45,0005.39,0003.50
2022-05-17 11:42:00,,0822.3,4.99,0.00,30.1,28.7,00.0,39.2,31.9,11.8,0000.0,0017.62,0005.41,0003.51
2022-05-17 11:43:00,,0822.3,5.00,0.00,30.1,28.7,00.0,39.2,31.9,11.8,0000.0,0018.19,0005.40,0003.50
2022-05-17 11:44:00,,0822.4,4.99,0.00,30.1,28.7,00.0,39.2,31.9,11.9,0000.0,0018.50,0005.41,0003.50
2022-05-17 11:45:00,,0822.3,5.01,0.00,30.1,28.6,00.0,39.2,31.9,11.9,0000.0,0019.02,0005.42,0003.49
2022-05-17 11:46:00,,0822.3,5.01,0.00,30.1,28.6,00.0,39.2,31.9,12.0,0000.0,0018.93,0005.48,0003.49
2022-05-17 11:47:00,,0822.3,5.00,0.00,30.1,28.6,00.0,39.2,31.9,11.8,0000.0,0019.00,0005.49,0003.50
2022-05-17 11:48:00,,0822.4,4.99,0.00,30.1,28.6,00.0,39.2,31.8,11.6,0000.0,0018.94,0005.42,0003.49
2022-05-17 11:49:00,,0822.3,5.00,0.00,30.1,28.6,00.0,39.2,31.9,11.3,0000.0,0018.30,0005.24,0003.47
2022-05-17 11:50:00,,0822.3,5.01,0.00,30.1,28.6,00.0,39.2,31.9,11.4,0000.0,0017.09,0005.05,0003.44
2022-05-17 11:51:00,,0822.3,4.99,0.00,30.1,28.6,00.0,39.2,31.9,11.5,0000.0,0017.50,0004.98,0003.43
2022-05-17 11:52:00,,0822.3,4.99,0.00,30.1,28.6,00.0,39.2,31.8,11.5,0000.0,0017.38,0005.05,0003.43
2022-05-17 11:53:00,,0822.3,5.01,0.00,30.1,28.6,00.0,39.2,31.8,11.6,0000.0,0017.42,0005.12,0003.43
2022-05-17 11:54:00,,0822.3,5.00,0.00,30.1,28.6,00.0,39.2,31.8,11.2,0000.0,0016.45,0005.13,0003.44
2022-05-17 11:55:00,,0822.3,5.00,0.00,30.1,28.6,00.0,39.2,31.8,11.3,0000.0,0015.68,0005.16,0003.45
2022-05-17 11:56:00,,0822.3,4.99,0.00,30.1,28.6,00.0,39.2,31.8,11.6,0000.0,0015.63,0005.23,0003.46
2022-05-17 11:57:00,,0822.3,5.00,0.00,30.1,28.6,00.0,39.2,31.8,11.5,0000.0,0015.78,0005.31,0003.48
2022-05-17 11:58:00,,0822.3,5.01,0.00,30.1,28.6,00.0,39.2,31.8,11.5,0000.0,0016.28,0005.38,0003.50
2022-05-17 11:59:00,,0822.4,5.00,0.00,30.1,28.6,00.0,39.2,31.7,11.6,0000.0,0016.40,0005.39,0003.49
